Winter Park, USA 16 day weather forecast

Slopes altitude range 2745 m - 3675m

Number of lifts: 22 Pistes: 143km

In some cases the lift and piste totals shown are for the ski domain (e.g. Three Valleys) rather than individual resort (e.g. Courchevel)

Overview

The 16 day weather forecast is fully updated 4 times every day.

    • Sat 20 APR 2019
    • Sat 20
    • 2C 3C
    • Sun 21 APR 2019
    • Sun 21
    • 1C 3C
    • Mon 22 APR 2019
    • Mon 22
    • 0C 2C
    • Tue 23 APR 2019
    • Tue 23
    • -2C -1C
    • Wed 24 APR 2019
    • Wed 24
    • -2C -1C
    • Thu 25 APR 2019
    • Thu 25
    • 2C 2C
    • Fri 26 APR 2019
    • Fri 26
    • 2C 3C
    • Sat 27 APR 2019
    • Sat 27
    • 6C 6C
    • Sun 28 APR 2019
    • Sun 28
    • 10C 15C
    • Mon 29 APR 2019
    • Mon 29
    • 13C 16C
    • Tue 30 APR 2019
    • Tue 30
    • 11C 22C
    • Wed 01 MAY 2019
    • Wed 01
    • 14C 20C
    • Thu 02 MAY 2019
    • Thu 02
    • 13C 20C
    • Fri 03 MAY 2019
    • Fri 03
    • 13C 21C
    • Sat 04 MAY 2019
    • Sat 04
    • 8C 11C
    • Sun 05 MAY 2019
    • Sun 05
    • 7C 11C

Date:

Time Type 0°C level Temp Chill Snow Cloud Speed Gust Dir Press
3:00 4016m 4°C 4_7 0cm 0% 7mph 7mph 1015mB
6:00 4074m 3°C 3_8 0cm 0% 8mph 8mph 1016mB
9:00 3858m 3°C 3_9 0cm 3% 9mph 9mph 1015mB
12:00 3888m 3°C 3_9 0cm 49% 9mph 13mph 1014mB
15:00 4110m 10°C 10_7 0cm 99% 7mph 12mph 1011mB
18:00 4128m 15°C 15_7 0cm 99% 7mph 14mph 1007mB
21:00 4172m 15°C 15_4 0cm 100% 4mph 7mph 1004mB
0:00 3965m 11°C 11_7 0cm 100% 7mph 11mph 1004mB
3:00 3662m 6°C 6_10 0cm 100% 10mph 19mph 1007mB
6:00 3766m 4°C 4_8 0cm 100% 8mph 13mph 1008mB
9:00 3524m 2°C 2_9 0cm 100% 9mph 15mph 1007mB
12:00 3432m 3°C 3_9 0cm 98% 9mph 12mph 1008mB
15:00 3576m 8°C 8_4 0cm 86% 4mph 6mph 1008mB
18:00 3505m 12°C 12_5 0cm 80% 5mph 4mph 1008mB
21:00 3476m 7°C 7_1 0cm 100% 1mph 3mph 1008mB
0:00 3360m 5°C 5_2 0cm 100% 2mph 4mph 1009mB
3:00 3078m 2°C 2_3 0cm 100% 3mph 4mph 1013mB
6:00 3020m 1°C 1_4 0cm 100% 4mph 7mph 1016mB
9:00 2898m 0°C 0_4 3cm 100% 4mph 7mph 1016mB
12:00 2769m 2°C 2_4 4cm 100% 4mph 6mph 1017mB
15:00 2743m 0°C 0_5 1cm 100% 5mph 6mph 1019mB
18:00 2794m 1°C 1_6 1cm 100% 6mph 8mph 1019mB
21:00 2820m 0°C 0_6 1cm 100% 6mph 8mph 1017mB
0:00 2768m 0°C 0_6 2cm 100% 6mph 8mph 1018mB
3:00 2597m -1°C -1_4 2cm 100% 4mph 5mph 1020mB
6:00 2561m -2°C -2_3 2cm 100% 3mph 5mph 1021mB
9:00 2516m -2°C -2_0 1cm 100% 0mph 1mph 1021mB
12:00 2491m -1°C -1_2 1cm 99% 2mph 2mph 1022mB
15:00 2816m 1°C 1_1 0cm 100% 1mph 4mph 1021mB
18:00 3099m 5°C 5_4 0cm 100% 4mph 4mph 1019mB
21:00 3138m 4°C 4_4 0cm 98% 4mph 4mph 1017mB
0:00 3228m 4°C 4_4 0cm 98% 4mph 3mph 1016mB
3:00 3251m 2°C 2_2 0cm 94% 2mph 3mph 1019mB
6:00 2634m -1°C -1_6 0cm 57% 6mph 7mph 1020mB
9:00 2481m -2°C -2_7 0cm 0% 7mph 7mph 1020mB
12:00 2431m -1°C -1_8 0cm 0% 8mph 8mph 1021mB
15:00 3392m 5°C 5_5 0cm 6% 5mph 7mph 1019mB
18:00 3597m 11°C 11_2 0cm 29% 2mph 5mph 1017mB
21:00 3809m 11°C 11_2 0cm 80% 2mph 6mph 1015mB
0:00 3826m 9°C 9_3 0cm 88% 3mph 6mph 1014mB
3:00 3770m 3°C 3_7 0cm 43% 7mph 8mph 1017mB
6:00 3641m 2°C 2_9 0cm 22% 9mph 12mph 1018mB
9:00 3682m 2°C 2_10 0cm 1% 10mph 17mph 1018mB
12:00 3572m 2°C 2_8 0cm 1% 8mph 13mph 1020mB
15:00 3406m 7°C 7_1 0cm 0% 1mph 5mph 1021mB
18:00 3674m 13°C 13_2 0cm 0% 2mph 10mph 1020mB
21:00 3984m 13°C 13_3 0cm 28% 3mph 12mph 1017mB
0:00 4008m 11°C 11_3 0cm 62% 3mph 3mph 1016mB
3:00 3946m 5°C 5_4 0cm 27% 4mph 5mph 1019mB
6:00 4038m 3°C 3_7 0cm 14% 7mph 8mph 1020mB
9:00 4024m 2°C 2_8 0cm 0% 8mph 9mph 1019mB
12:00 4034m 3°C 3_9 0cm 0% 9mph 9mph 1020mB
15:00 4079m 11°C 11_7 0cm 54% 7mph 12mph 1018mB
18:00 4179m 16°C 16_7 0cm 48% 7mph 13mph 1015mB
21:00 4351m 16°C 16_11 0cm 27% 11mph 16mph 1012mB
0:00 4310m 15°C 15_11 0cm 40% 11mph 16mph 1011mB
3:00 4283m 7°C 7_9 0cm 68% 9mph 13mph 1014mB
6:00 4234m 6°C 6_10 0cm 84% 10mph 19mph 1014mB
9:00 4355m 6°C 6_11 0cm 99% 11mph 31mph 1014mB
12:00 4214m 6°C 6_10 0cm 100% 10mph 29mph 1014mB
15:00 4176m 21°C 21_6 0cm 100% 6mph 13mph 1011mB
18:00 4063m 26°C 26_11 0cm 93% 11mph 22mph 1010mB
21:00 4216m 26°C 26_16 0cm 74% 16mph 24mph 1009mB
0:00 4193m 26°C 26_13 0cm 37% 13mph 20mph 1009mB
3:00 4118m 18°C 18_7 0cm 0% 7mph 9mph 1013mB
6:00 4030m 15°C 15_7 0cm 0% 7mph 8mph 1016mB
9:00 3962m 12°C 12_4 0cm 0% 4mph 6mph 1018mB
12:00 4048m 15°C 15_1 0cm 0% 1mph 2mph 1019mB
15:00 4073m 18°C 18_4 0cm 0% 4mph 5mph 1017mB
18:00 4107m 25°C 25_9 0cm 0% 9mph 7mph 1014mB
21:00 4302m 25°C 25_5 0cm 6% 5mph 13mph 1010mB
0:00 4431m 25°C 25_1 0cm 20% 1mph 7mph 1009mB
3:00 4413m 21°C 21_12 0cm 16% 12mph 20mph 1011mB
6:00 4464m 16°C 16_6 0cm 9% 6mph 8mph 1012mB
9:00 4380m 14°C 14_5 0cm 10% 5mph 6mph 1013mB
12:00 4277m 16°C 16_3 0cm 40% 3mph 5mph 1015mB
15:00 4105m 19°C 19_2 0cm 98% 2mph 2mph 1015mB
18:00 4103m 24°C 24_10 0cm 94% 10mph 10mph 1015mB
21:00 4175m 24°C 24_15 0cm 35% 15mph 15mph 1013mB
0:00 4118m 23°C 23_16 0cm 57% 16mph 17mph 1013mB
Afternoon 0mm 0 4095m 22°C 22_7 0cm 51% 7mph 11mph 1023mB
Morning 0mm 0 4311m 11°C 11_14 0cm 49% 14mph 18mph 1018mB
Afternoon 0.0625mm 0.4375 4189m 20°C 20_5 0cm 93% 5mph 8mph 1017mB
Morning 0.0208333mm 0 4155m 14°C 14_10 0cm 97% 10mph 13mph 1009mB
Afternoon 0.328125mm 0 3979m 20°C 20_6 0cm 83% 6mph 7mph 1011mB
Morning 0.00520833mm 0 3944m 13°C 13_8 0cm 75% 8mph 10mph 1006mB
Afternoon 0.854167mm 2.4375 3702m 21°C 21_13 0cm 97% 13mph 24mph 1009mB
Morning 1.84896mm 1.5625 3230m 11°C 11_6 0cm 100% 6mph 10mph 1012mB
Afternoon 0.15625mm 0.125 2990m 11°C 11_3 0cm 84% 3mph 6mph 1012mB
Morning 0.015625mm 0.0625 3380m 8°C 8_9 0cm 76% 9mph 10mph 1010mB
Afternoon 0.192708mm 0 3170m 11°C 11_6 0cm 87% 6mph 8mph 1013mB
Morning 0.0833333mm 0 3371m 7°C 7_11 0cm 81% 11mph 14mph 1010mB

16 day outlook at a glance

Forecast issued: 20/04/2019 06:31:34

Chat

Your comments and questions. In a resort? Let us know what it's like!


Characters left 250

For terms and conditions see Readers Comments on the Cookie and privacy policy page.